Volver al catálogo

STARLINK-36693

ActivoComunicacionesSSO
NORAD 67742·PAYLOAD·🇺🇸 United States

Lanzado Feb 11, 2026 desde Vandenberg Space Force Base

Loading…

Próximos Pases (próximas 24 horas)

TLE

ActualizadoSource: CelesTrak SupGP

Época: Sep 14, 2026, 21:15 UTC

1 67742C 26026X   26257.88590278 -.00115890  00000+0 -36052-2 0  2571
2 67742  97.2851 309.8462 0001320  95.0917 254.0719 15.33429951    10

Sigue STARLINK-36693 en tiempo real con AllMySat

Download on the App Store